TimeMST,TemperatureF,Dew PointF,Humidity,Sea Level PressureIn,VisibilityMPH,Wind Direction,Wind SpeedMPH,Gust SpeedMPH,PrecipitationIn,Events,Conditions,WindDirDegrees,DateUTC
12:53 AM,18.0,14.0,84,29.96,10.0,Calm,Calm,-,N/A,,Clear,0,2012-12-14 07:53:00
1:53 AM,17.1,15.1,92,29.94,10.0,Calm,Calm,-,N/A,,Clear,0,2012-12-14 08:53:00
2:53 AM,15.1,12.0,88,29.93,10.0,Calm,Calm,-,N/A,,Partly Cloudy,0,2012-12-14 09:53:00
3:53 AM,15.1,12.0,88,29.92,10.0,Calm,Calm,-,N/A,,Clear,0,2012-12-14 10:53:00
4:53 AM,12.9,10.9,92,29.91,10.0,WSW,3.5,-,N/A,,Overcast,250,2012-12-14 11:53:00
5:53 AM,15.1,12.0,88,29.90,10.0,Calm,Calm,-,N/A,,Overcast,0,2012-12-14 12:53:00
6:53 AM,12.9,10.9,92,29.92,10.0,Calm,Calm,-,N/A,,Overcast,0,2012-12-14 13:53:00
7:53 AM,14.0,10.0,84,29.91,10.0,Calm,Calm,-,N/A,,Clear,0,2012-12-14 14:53:00
8:28 AM,10.4,8.6,92,29.78,1.5,WSW,3.5,-,N/A,,Partly Cloudy,250,2012-12-14 15:28:00
8:30 AM,10.4,8.6,92,29.78,1.0,Calm,Calm,-,N/A,,Partly Cloudy,0,2012-12-14 15:30:00
8:36 AM,10.4,8.6,92,29.78,0.5,Calm,Calm,-,N/A,Fog,Light Freezing Fog,0,2012-12-14 15:36:00
8:45 AM,12.2,10.4,92,29.78,1.2,Calm,Calm,-,N/A,,Mostly Cloudy,0,2012-12-14 15:45:00
8:53 AM,12.9,10.9,92,29.92,10.0,Calm,Calm,-,N/A,,Mostly Cloudy,0,2012-12-14 15:53:00
9:53 AM,16.0,14.0,92,29.91,10.0,Calm,Calm,-,N/A,,Overcast,0,2012-12-14 16:53:00
10:53 AM,18.0,17.1,96,29.91,10.0,Calm,Calm,-,N/A,,Overcast,0,2012-12-14 17:53:00
11:53 AM,21.0,16.0,81,29.89,10.0,Calm,Calm,-,N/A,,Overcast,0,2012-12-14 18:53:00
12:53 PM,21.0,17.1,85,29.88,10.0,Calm,Calm,-,N/A,,Overcast,0,2012-12-14 19:53:00
1:53 PM,21.9,18.0,85,29.86,10.0,Calm,Calm,-,N/A,,Overcast,0,2012-12-14 20:53:00
2:53 PM,23.0,17.1,78,29.87,10.0,Calm,Calm,-,N/A,,Overcast,0,2012-12-14 21:53:00
3:53 PM,24.1,17.1,75,29.88,10.0,Calm,Calm,-,N/A,,Overcast,0,2012-12-14 22:53:00
4:53 PM,24.1,18.0,77,29.90,10.0,Calm,Calm,-,N/A,,Overcast,0,2012-12-14 23:53:00
5:53 PM,24.1,17.1,75,29.91,10.0,Calm,Calm,-,N/A,,Overcast,0,2012-12-15 00:53:00
6:53 PM,24.1,17.1,75,29.93,10.0,Calm,Calm,-,N/A,,Overcast,0,2012-12-15 01:53:00
7:53 PM,24.1,18.0,77,29.94,10.0,Calm,Calm,-,N/A,,Overcast,0,2012-12-15 02:53:00
8:53 PM,19.9,17.1,89,29.96,10.0,North,4.6,-,N/A,,Overcast,350,2012-12-15 03:53:00
9:53 PM,21.9,18.0,85,29.98,10.0,Calm,Calm,-,N/A,,Overcast,0,2012-12-15 04:53:00
10:53 PM,23.0,19.0,85,29.98,10.0,Calm,Calm,-,N/A,,Overcast,0,2012-12-15 05:53:00
11:53 PM,23.0,19.0,85,29.99,5.0,Calm,Calm,-,N/A,,Overcast,0,2012-12-15 06:53:00